Location: Stuart
(27.1975°N, 80.2528°W)
Time: 23:00:28
(UTC-05:00)

X-37B - Visible Passes

Search period start: 25 February 2021 00:00
Search period end: 07 March 2021 00:00
Orbit: 383 x 391 km, 45.0° (Epoch: 10 February)

Date Brightness Start Highest point End Pass type
(mag) Time Alt. Az. Time Alt. Az. Time Alt. Az.
01 Mar 3.4 05:35:39 10° N 05:36:53 12° NNE 05:38:08 10° NE visible
02 Mar 1.7 06:12:26 10° NW 06:15:27 42° NE 06:18:27 10° ESE visible
03 Mar 2.8 05:15:50 17° N 05:16:59 21° NNE 05:19:28 10° E visible
04 Mar 0.5 05:52:52 15° NW 05:55:21 76° SW 05:58:29 10° SE visible
05 Mar 2.2 04:57:44 35° ENE 04:57:44 35° ENE 05:00:00 10° ESE visible
06 Mar 1.6 05:35:04 28° SW 05:35:08 28° SW 05:37:55 10° SSE visible
